Defiance, OH

8:46 AM EDT on April 27, 2017 (GMT -0400)
Defiance Memorial

Weather History for KDFI - January, 2013

Change the Weather History Date:

Saturday, January 12, 2013

  Actual Average Record
Temperature  
Mean Temperature 53 °F -  
Max Temperature 60 °F 29 °F 64 °F (2005)
Min Temperature 46 °F 12 °F -14 °F (1984)
Degree Days  
Heating Degree Days 12    
Growing Degree Days 3 (Base 50)    
Moisture  
Dew Point 49 °F    
Average Humidity 90    
Maximum Humidity 100    
Minimum Humidity 75    
Precipitation  
Precipitation 0.14 in - - ()
Sea Level Pressure  
Sea Level Pressure 29.88 in    
Wind  
Wind Speed 6 mph (SSE)    
Max Wind Speed 14 mph    
Max Gust Speed -    
Visibility 6 miles    
Events Rain    
Averages and records for this station are not official NWS values.
T = Trace of Precipitation, MM = Missing Value Source: NWS Daily Summary

Daily Weather History Graph

Daily Weather History Graph

Search for Another Location

Airport or City:

Trip Planner

Search our weather history database for the weather conditions in past years. The results will help you decide how hot, cold, wet, or windy it might be!

Date:

Astronomy

Jan. 12, 2013 Rise Set
Actual Time 8:02 AM EST 5:30 PM EST
Civil Twilight 7:31 AM EST 6:00 PM EST
Nautical Twilight 6:57 AM EST 6:35 PM EST
Astronomical Twilight 6:24 AM EST 7:08 PM EST
Moon 8:19 AM EST (1/12) 6:59 PM EST (1/12)
Length of Visible Light 10h 29m
Length of Day
9h 27m
New Moon, 1% of the Moon is Illuminated
Jan 12
New Moon
Jan 18
First Quarter
Jan 26
Full
Feb 3
Last Quarter
Feb 10
New

Hourly Weather History & Observations

Time (EST) Temp. Dew Point Humidity Pressure Visibility Wind Dir Wind Speed Gust Speed Precip Events Conditions
12:53 AM 48.0 °F 44.1 °F 86% 29.86 in 10.0 mi SSW 6.9 mph - N/A   Clear
1:53 AM 48.0 °F 44.1 °F 86% 29.86 in 10.0 mi SSW 6.9 mph - N/A   Clear
2:53 AM 48.9 °F 44.1 °F 83% 29.88 in 10.0 mi SSW 8.1 mph - N/A   Clear
3:53 AM 48.0 °F 44.1 °F 86% 29.90 in 10.0 mi SSW 6.9 mph - N/A   Clear
4:53 AM 46.9 °F 44.1 °F 90% 29.88 in 10.0 mi South 5.8 mph - N/A   Clear
5:53 AM 48.0 °F 44.1 °F 86% 29.89 in 10.0 mi SSW 8.1 mph - N/A   Clear
7:53 AM 48.0 °F 44.1 °F 86% 29.93 in 10.0 mi SSW 6.9 mph - N/A   Clear
8:53 AM 50.0 °F 46.9 °F 89% 29.95 in 10.0 mi SSW 6.9 mph - N/A   Clear
9:53 AM 51.1 °F 48.0 °F 89% 29.96 in 10.0 mi SSW 5.8 mph - N/A   Clear
10:53 AM 53.1 °F 48.9 °F 86% 29.97 in 10.0 mi South 6.9 mph - N/A   Clear
11:53 AM 55.9 °F 51.1 °F 84% 29.95 in 10.0 mi SSW 13.8 mph - N/A   Clear
12:53 PM 59.0 °F 52.0 °F 78% 29.94 in 10.0 mi SSW 11.5 mph - N/A   Clear
1:53 PM 59.0 °F 53.1 °F 81% 29.94 in 10.0 mi SSW 11.5 mph - N/A   Clear
2:53 PM 60.1 °F 52.0 °F 75% 29.96 in 10.0 mi SSW 9.2 mph - N/A   Partly Cloudy
3:53 PM 59.0 °F 51.1 °F 75% 29.96 in 10.0 mi SSW 8.1 mph - N/A   Clear
4:53 PM 57.0 °F 52.0 °F 83% 29.96 in 10.0 mi SSW 4.6 mph - N/A   Clear
5:53 PM 54.0 °F 50.0 °F 86% 29.94 in 10.0 mi Calm Calm - N/A   Clear
6:53 PM 51.1 °F 50.0 °F 96% 29.94 in 4.0 mi Calm Calm - N/A   Clear
7:53 PM 51.1 °F 48.9 °F 92% 29.91 in 5.0 mi Calm Calm - N/A   Clear
8:14 PM 50.0 °F 48.2 °F 94% 29.90 in 2.0 mi Calm Calm - N/A   Clear
8:21 PM 50.0 °F 48.2 °F 94% 29.89 in 3.0 mi Calm Calm - N/A   Clear
8:53 PM 50.0 °F 48.0 °F 93% 29.89 in 4.0 mi NNE 3.5 mph - N/A   Clear
9:27 PM 50.0 °F 48.2 °F 94% 29.89 in 4.0 mi North 3.5 mph - N/A   Mostly Cloudy
9:44 PM 50.0 °F 48.2 °F 94% 29.89 in 2.0 mi Calm Calm - 0.03 in Rain Rain
9:53 PM 50.0 °F 48.9 °F 96% 29.89 in 2.0 mi Calm Calm - 0.06 in Rain Rain
10:01 PM 50.0 °F 48.2 °F 94% 29.87 in 2.5 mi North 3.5 mph - 0.01 in Rain Light Rain
10:07 PM 50.0 °F 48.2 °F 94% 29.86 in 3.0 mi North 3.5 mph - 0.01 in Rain Light Rain
10:28 PM 51.8 °F 50.0 °F 94% 29.84 in 2.0 mi ENE 4.6 mph - 0.04 in Rain Light Rain
10:39 PM 51.8 °F 51.8 °F 100% 29.83 in 3.0 mi NE 3.5 mph - 0.06 in Rain Rain
10:46 PM 51.8 °F 51.8 °F 100% 29.83 in 2.5 mi NE 4.6 mph - 0.07 in Rain Rain
10:53 PM 52.0 °F 51.1 °F 97% 29.83 in 2.5 mi NE 4.6 mph - 0.08 in Rain Light Rain
11:23 PM 53.6 °F 51.8 °F 94% 29.78 in 2.0 mi ENE 4.6 mph - 0.08 in Rain Rain
11:27 PM 53.6 °F 51.8 °F 94% 29.78 in 2.5 mi ENE 6.9 mph - 0.09 in Rain Light Rain
11:35 PM 53.6 °F 51.8 °F 94% 29.78 in 3.0 mi ENE 5.8 mph - 0.09 in Rain Light Rain
11:42 PM 53.6 °F 51.8 °F 94% 29.78 in 2.5 mi ENE 5.8 mph - 0.10 in Rain Light Rain
11:51 PM 53.6 °F 51.8 °F 94% 29.77 in 2.5 mi NE 6.9 mph - 0.13 in Rain Rain
11:58 PM 53.6 °F 51.8 °F 94% 29.77 in 2.0 mi NNE 6.9 mph - 0.02 in Rain Rain